カタログに戻る

FENGYUN 1C DEB

運用中VLEO
NORAD 30290·DEBRIS·🇨🇳 China

打ち上げ May 10, 1999 から Taiyuan Satellite Launch Center

Loading…

次のパス (今後24時間)

TLE

最新Source: Space-Track

元期: Sep 14, 2026, 14:47 UTC

1 30290U 99025ZB  26257.61654029  .00040490  00000-0  33872-2 0  9996
2 30290 102.6072 165.1581 0012953  21.2678  96.5530 14.98281733 19775

AllMySatでFENGYUN 1C DEBをリアルタイム追跡

Download on the App Store